Weather History for K20U - January, 2013

Change the Weather History Date:

Tuesday, January 8, 2013

  Actual Average (KGDV) Record (KGDV)
Temperature  
Mean Temperature 27 °F -  
Max Temperature 35 °F 21 °F 62 °F (2002)
Min Temperature 19 °F 4 °F -9 °F (1999)
Degree Days  
Heating Degree Days 38    
Moisture  
Dew Point 26 °F    
Average Humidity 85    
Maximum Humidity 100    
Minimum Humidity 69    
Precipitation  
Precipitation 0.30 in - - ()
Sea Level Pressure  
Sea Level Pressure 29.75 in    
Wind  
Wind Speed 16 mph (WSW)    
Max Wind Speed 21 mph    
Max Gust Speed 26 mph    
Visibility 9 miles    
Events Snow    
Averages and records for this station are not official NWS values.
T = Trace of Precipitation, MM = Missing Value Source: NWS Daily Summary

Daily Weather History Graph

Daily Weather History Graph

Search for Another Location

Airport or City:

Trip Planner

Search our weather history database for the weather conditions in past years. The results will help you decide how hot, cold, wet, or windy it might be!

Date:

Astronomy

Jan. 08, 2013 Rise Set
Actual Time 7:40 AM MST 4:25 PM MST
Civil Twilight 7:05 AM MST 5:00 PM MST
Nautical Twilight 6:27 AM MST 5:38 PM MST
Astronomical Twilight 5:50 AM MST 6:15 PM MST
Moon 4:14 AM MST (1/8) 1:30 PM MST (1/8)
Length of Visible Light 9h 54m
Length of Day
8h 45m
Waning Crescent, 13% of the Moon is Illuminated
Jan 8
Waning Crescent
Jan 11
New
Jan 18
First Quarter
Jan 26
Full
Feb 3
Last Quarter

Hourly Weather History & Observations

Time (MST) Temp. Windchill Dew Point Humidity Pressure Visibility Wind Dir Wind Speed Gust Speed Precip Events Conditions
12:15 AM 32.0 °F 21.6 °F 23.0 °F 69% 29.63 in 10.0 mi South 15.0 mph - N/A   Overcast
12:35 AM 32.0 °F 20.5 °F 23.0 °F 69% 29.63 in 10.0 mi SSW 18.4 mph 23.0 mph N/A   Overcast
12:55 AM 32.0 °F 20.8 °F 26.6 °F 80% 29.62 in 6.0 mi SSW 17.3 mph - N/A   Haze
1:15 AM 32.0 °F 21.6 °F 28.4 °F 87% 29.61 in 6.0 mi SSW 15.0 mph - N/A   Overcast
1:35 AM 32.0 °F 20.5 °F 28.4 °F 87% 29.61 in 3.0 mi SSW 18.4 mph - N/A   Mostly Cloudy
1:55 AM 32.0 °F 21.6 °F 28.4 °F 87% 29.61 in 2.0 mi SSW 15.0 mph - N/A   Mostly Cloudy
2:15 AM 32.0 °F 20.5 °F 28.4 °F 87% 29.60 in 5.0 mi SSW 18.4 mph - N/A   Mostly Cloudy
2:35 AM 32.0 °F 20.8 °F 30.2 °F 93% 29.60 in 4.0 mi SSW 17.3 mph - N/A   Mostly Cloudy
2:55 AM 32.0 °F 21.2 °F 32.0 °F 100% 29.59 in 10.0 mi SW 16.1 mph - N/A   Mostly Cloudy
3:15 AM 32.0 °F 22.1 °F 32.0 °F 100% 29.58 in 10.0 mi SW 13.8 mph - N/A   Overcast
3:35 AM 32.0 °F 20.8 °F 30.2 °F 93% 29.57 in 10.0 mi SW 17.3 mph 25.3 mph N/A   Overcast
3:55 AM 32.0 °F 21.2 °F 32.0 °F 100% 29.57 in 10.0 mi SW 16.1 mph 23.0 mph N/A   Overcast
4:15 AM 32.0 °F 21.2 °F 32.0 °F 100% 29.57 in 10.0 mi WSW 16.1 mph 21.9 mph N/A   Overcast
4:35 AM 33.8 °F 23.9 °F 32.0 °F 93% 29.57 in 10.0 mi WSW 15.0 mph 20.7 mph N/A   Scattered Clouds
4:55 AM 33.8 °F 23.2 °F 32.0 °F 93% 29.57 in 10.0 mi WSW 17.3 mph 24.2 mph N/A   Mostly Cloudy
5:15 AM 33.8 °F 23.9 °F 32.0 °F 93% 29.57 in 10.0 mi WSW 15.0 mph - N/A   Overcast
5:35 AM 33.8 °F 23.9 °F 32.0 °F 93% 29.58 in 10.0 mi West 15.0 mph - N/A   Overcast
5:55 AM 33.8 °F - 32.0 °F 93% 29.59 in 10.0 mi North - - N/A   Overcast
6:15 AM 33.8 °F - 30.2 °F 87% 29.60 in 10.0 mi North - - N/A   Overcast
6:35 AM 33.8 °F - 30.2 °F 87% 29.61 in 10.0 mi North - - N/A   Overcast
6:55 AM 32.0 °F 23.0 °F 28.4 °F 87% 29.62 in 10.0 mi West 11.5 mph - N/A   Overcast
7:15 AM 32.0 °F 23.0 °F 26.6 °F 80% 29.63 in 10.0 mi WNW 11.5 mph - N/A   Mostly Cloudy
7:55 AM 32.0 °F 23.0 °F 26.6 °F 80% 29.65 in 10.0 mi West 11.5 mph - N/A   Scattered Clouds
8:15 AM 32.0 °F 23.6 °F 26.6 °F 80% 29.67 in 10.0 mi West 10.4 mph - N/A   Clear
8:35 AM 32.0 °F 20.8 °F 26.6 °F 80% 29.67 in 10.0 mi West 17.3 mph - N/A   Partly Cloudy
8:55 AM 32.0 °F 22.5 °F 26.6 °F 80% 29.68 in 10.0 mi West 12.7 mph - N/A   Scattered Clouds
9:15 AM 32.0 °F 23.0 °F 26.6 °F 80% 29.69 in 10.0 mi West 11.5 mph - N/A   Scattered Clouds
9:35 AM 32.0 °F 22.5 °F 26.6 °F 80% 29.69 in 10.0 mi West 12.7 mph - N/A   Partly Cloudy
9:55 AM 33.8 °F 23.9 °F 26.6 °F 75% 29.70 in 10.0 mi West 15.0 mph - N/A   Partly Cloudy
10:15 AM 33.8 °F 24.3 °F 26.6 °F 75% 29.71 in 10.0 mi West 13.8 mph - N/A   Partly Cloudy
10:55 AM 33.8 °F 23.9 °F 26.6 °F 75% 29.71 in 10.0 mi WSW 15.0 mph - N/A   Clear
11:15 AM 33.8 °F 23.5 °F 26.6 °F 75% 29.71 in 10.0 mi West 16.1 mph - N/A   Clear
11:55 AM 35.6 °F 25.5 °F 28.4 °F 75% 29.73 in 10.0 mi West 17.3 mph 21.9 mph N/A   Scattered Clouds
12:15 PM 35.6 °F 26.2 °F 28.4 °F 75% 29.73 in 10.0 mi WNW 15.0 mph - N/A   Clear
12:55 PM 35.6 °F 25.5 °F 28.4 °F 75% 29.75 in 10.0 mi West 17.3 mph 21.9 mph N/A   Scattered Clouds
1:15 PM 35.6 °F 26.2 °F 28.4 °F 75% 29.76 in 10.0 mi WNW 15.0 mph 20.7 mph N/A   Mostly Cloudy
1:35 PM 35.6 °F 24.5 °F 28.4 °F 75% 29.77 in 5.0 mi WNW 20.7 mph 26.5 mph N/A Snow Light Snow
1:55 PM 32.0 °F 20.8 °F 30.2 °F 93% 29.79 in 2.0 mi WNW 17.3 mph - 0.12 in Snow Light Snow
2:15 PM 32.0 °F 21.2 °F 32.0 °F 100% 29.80 in 2.5 mi WNW 16.1 mph 21.9 mph 0.06 in Snow Light Snow
2:35 PM 32.0 °F 21.2 °F 32.0 °F 100% 29.81 in 3.0 mi WNW 16.1 mph - 0.15 in Snow Light Snow
2:55 PM 32.0 °F 20.5 °F 30.2 °F 93% 29.83 in 6.0 mi WNW 18.4 mph 23.0 mph 0.18 in Snow Light Snow
3:15 PM 32.0 °F 21.6 °F 28.4 °F 87% 29.84 in 10.0 mi WNW 15.0 mph 20.7 mph N/A Snow Light Snow
3:35 PM 32.0 °F 21.2 °F 28.4 °F 87% 29.85 in 10.0 mi WNW 16.1 mph - N/A Snow Light Snow
3:55 PM 32.0 °F 20.8 °F 28.4 °F 87% 29.85 in 10.0 mi West 17.3 mph - N/A Snow Light Snow
4:15 PM 32.0 °F 21.6 °F 28.4 °F 87% 29.85 in 10.0 mi West 15.0 mph - N/A Snow Light Snow
4:35 PM 32.0 °F 22.1 °F 28.4 °F 87% 29.86 in 10.0 mi West 13.8 mph - N/A   Mostly Cloudy
4:55 PM 28.4 °F 17.0 °F 26.6 °F 93% 29.87 in 10.0 mi West 15.0 mph - N/A   Partly Cloudy
5:15 PM 28.4 °F 17.0 °F 24.8 °F 86% 29.88 in 10.0 mi West 15.0 mph - N/A   Clear
5:35 PM 28.4 °F 15.8 °F 26.6 °F 93% 29.89 in 10.0 mi West 18.4 mph - N/A   Clear
5:55 PM 28.4 °F 16.2 °F 24.8 °F 86% 29.90 in 10.0 mi West 17.3 mph - N/A   Clear
6:15 PM 26.6 °F 14.7 °F 24.8 °F 93% 29.90 in 10.0 mi WSW 15.0 mph 21.9 mph N/A   Clear
6:55 PM 26.6 °F 14.3 °F 23.0 °F 86% 29.91 in 10.0 mi West 16.1 mph - N/A   Clear
7:15 PM 26.6 °F 14.3 °F 23.0 °F 86% 29.92 in 10.0 mi West 16.1 mph - N/A   Clear
7:35 PM 26.6 °F 14.7 °F 23.0 °F 86% 29.93 in 10.0 mi West 15.0 mph - N/A   Clear
7:55 PM 26.6 °F 13.8 °F 21.2 °F 80% 29.94 in 10.0 mi West 17.3 mph - N/A   Clear
8:35 PM 26.6 °F 13.4 °F 17.6 °F 69% 29.95 in 10.0 mi West 18.4 mph - N/A   Clear
8:55 PM 24.8 °F 12.4 °F 15.8 °F 69% 29.95 in 10.0 mi West 15.0 mph - N/A   Clear
9:15 PM 23.0 °F 10.6 °F 15.8 °F 74% 29.95 in 10.0 mi West 13.8 mph - N/A   Scattered Clouds
9:35 PM 23.0 °F 10.6 °F 15.8 °F 74% 29.96 in 10.0 mi West 13.8 mph - N/A   Mostly Cloudy
9:55 PM 21.2 °F 9.5 °F 15.8 °F 80% 29.98 in 10.0 mi SW 11.5 mph - N/A   Mostly Cloudy
10:55 PM 21.2 °F 8.3 °F 15.8 °F 80% 29.98 in 10.0 mi West 13.8 mph - N/A   Partly Cloudy
11:15 PM 19.4 °F 6.6 °F 14.0 °F 80% 29.99 in 10.0 mi WSW 12.7 mph - N/A   Clear
11:35 PM 19.4 °F 6.0 °F 14.0 °F 80% 30.00 in 10.0 mi WSW 13.8 mph - N/A   Clear
11:55 PM 19.4 °F 5.5 °F 14.0 °F 80% 30.00 in 10.0 mi WSW 15.0 mph - N/A   Clear